Location: Forfry
(49.0572°N, 2.8481°E)
Time: 14:30:09
(UTC+00:00)

Daily predictions for brighter satellites

Satellite Brightness Start Highest point End
(mag) Time Altitude Azimuth Time Altitude Azimuth Time Altitude Azimuth
Unknown 4.0 17:15:59 10° W 17:20:06 60° NNW 17:24:13 10° ENE
Unknown 4.0 17:18:14 10° W 17:22:20 60° NNW 17:26:27 10° ENE
Cosmos 1844 3.8 17:17:30 10° SSW 17:23:13 84° ESE 17:29:03 10° NNE
Cosmos 1726 2.6 17:20:39 10° SSE 17:24:00 36° E 17:27:23 10° NNE
Unknown 4.0 17:20:01 10° W 17:24:07 58° NNW 17:28:14 10° ENE
Unknown 3.3 17:21:59 10° WNW 17:25:22 59° NNE 17:28:44 10° E
Abrixas rocket 3.5 17:22:48 10° SSW 17:25:22 24° SSE 17:27:57 10° E
SKYMED 2 4.3 17:21:48 10° NNE 17:25:45 32° E 17:29:40 10° SSE
Cosmos 1758 4.5 17:22:10 10° SSW 17:26:01 47° WNW 17:29:52 10° N
Unknown 4.0 17:23:21 10° W 17:27:27 57° NNW 17:31:33 10° ENE
Unknown 4.0 17:23:30 10° W 17:27:36 58° NNW 17:31:42 10° ENE
Unknown 4.0 17:24:57 10° WNW 17:28:33 44° N 17:32:09 10° ENE
YAOGAN 1 3.2 17:25:04 10° SE 17:28:58 34° ENE 17:32:53 10° N
Unknown 4.0 17:24:54 10° W 17:28:59 57° NNW 17:33:06 10° ENE
FALCON 9 DEB 3.4 17:27:22 10° WNW 17:30:48 58° NNE 17:34:14 10° E
Cosmos 2084 4.1 17:27:08 10° WSW 17:31:37 59° NW 17:36:02 10° NE
Cosmos 2228 3.0 17:27:20 10° S 17:31:43 83° E 17:36:04 10° NNE
Unknown 4.0 17:28:08 10° W 17:32:13 57° NNW 17:36:19 10° ENE
CSL-04 Rocket 4.0 17:27:43 10° SE 17:32:58 46° ENE 17:38:10 10° N
Lacrosse 5 2.0 17:28:44 10° NW 17:33:46 58° NNE 17:38:45 10° ESE
Cosmos 1470 4.4 17:31:01 10° SW 17:34:46 39° WNW 17:38:32 10° N
Unknown 4.1 17:31:34 10° W 17:35:38 55° NNW 17:39:37 11° ENE
H-2A R/B 4.0 17:33:58 10° ENE 17:35:42 12° NE 17:37:25 10° NNE
Cosmos 2263 Rocket 4.3 17:31:28 10° W 17:35:50 22° NW 17:40:13 10° N
Unknown 4.1 17:33:16 10° W 17:37:20 55° NNW 17:41:15 11° ENE
Envisat 3.0 17:32:24 10° SSE 17:37:28 74° ENE 17:42:34 10° N
Cosmos 1726 Rocket 3.5 17:33:14 10° S 17:37:38 89° E 17:42:01 10° N
Unknown 4.1 17:34:56 10° W 17:39:01 54° N 17:42:51 11° ENE
Shenzhou-11 Module 3.9 17:37:00 10° WSW 17:39:11 20° S 17:41:20 10° SE
Cosmos 921 Rocket 3.1 17:35:05 10° SSW 17:39:35 90° ENE 17:44:03 10° NNE
CENTAUR R/B 4.2 17:39:19 10° ESE 17:40:21 10° E 17:40:48 10° E
Unknown 4.1 17:36:37 10° W 17:40:41 54° N 17:44:27 12° ENE
Lacrosse 5 rocket 4.2 17:38:44 10° W 17:40:54 15° SW 17:43:07 10° SSW
Unknown 3.3 17:40:27 10° WNW 17:43:56 60° NNE 17:46:48 14° E
Unknown 4.1 17:39:58 10° W 17:44:03 53° N 17:47:39 13° ENE
Unknown 3.8 17:41:28 10° WNW 17:44:29 46° SSW 17:47:30 10° SE
Unknown 4.1 17:41:42 10° W 17:45:46 52° N 17:49:18 13° ENE
Cosmos 1356 3.3 17:42:28 10° S 17:45:52 66° E 17:49:18 10° NNE
Falcon 9 debris 3.1 17:43:22 10° WNW 17:46:49 71° NNE 17:49:37 15° ESE
Meteor 2-10 3.9 17:42:00 10° S 17:46:59 64° E 17:51:59 10° NNE
Unknown 4.1 17:43:18 10° W 17:47:21 52° N 17:50:50 14° ENE
Cosmos 1328 3.7 17:44:53 10° N 17:48:53 88° ENE 17:52:50 10° S
Unknown 4.1 17:44:55 10° W 17:48:59 52° N 17:52:23 14° ENE
Unknown 4.1 17:45:44 10° W 17:49:47 51° N 17:53:10 14° ENE
Cosmos 1833 Rocket 2.7 17:44:15 10° NNW 17:49:51 64° ENE 17:55:26 10° SE
Unknown 4.1 17:48:05 10° W 17:52:09 52° N 17:55:26 15° ENE
Unknown 4.2 17:51:28 10° W 17:55:31 51° N 17:58:39 16° ENE
YAOGAN 6 2.5 17:52:09 10° SSE 17:55:47 74° ENE 17:59:25 10° N
Cosmos 1939 Rocket 3.6 17:52:50 10° SE 17:56:25 32° ENE 18:00:05 10° N
Unknown 4.0 17:52:58 10° WNW 17:56:41 46° N 17:59:13 18° ENE
Unknown 4.2 17:53:07 10° W 17:57:11 51° N 18:00:14 17° ENE
USA 116 3.8 17:54:28 10° NNE 17:57:27 35° E 18:00:38 10° SSE
Unknown 4.2 17:55:02 10° W 17:59:05 50° N 18:02:03 17° ENE
Unknown 4.2 17:56:28 10° W 18:00:31 50° N 18:03:26 18° ENE
Cosmos 2058 Rocket 3.1 17:56:36 10° SSW 18:00:57 81° W 18:05:20 10° N
USA 238 DEB 4.1 17:55:21 10° S 18:01:30 40° ESE 18:07:51 10° NE
USA 238 4.1 17:55:28 10° S 18:01:37 40° ESE 18:07:57 10° NE
Unknown 4.2 17:58:06 10° W 18:02:09 50° N 18:05:00 18° ENE
Unknown 4.2 18:01:30 10° W 18:05:33 49° N 18:08:15 19° ENE
Unknown 3.1 18:02:27 10° WNW 18:05:59 80° NNE 18:08:00 24° ESE
COBE Rocket 4.1 18:01:22 10° N 18:06:34 80° WNW 18:11:37 10° SSW
Unknown 4.2 18:03:09 10° W 18:07:11 49° N 18:09:49 20° ENE
CZ-2D R/B 3.5 18:04:34 10° SE 18:08:16 46° ENE 18:12:00 10° N
Unknown 4.2 18:04:50 10° W 18:08:53 49° N 18:11:26 21° ENE
Cosmos 1300 3.5 18:06:07 10° SSE 18:09:23 27° E 18:12:39 10° NNE
SJ 16-02 2.8 18:06:57 10° N 18:10:06 19° NE 18:10:34 19° ENE
Unknown 4.2 18:06:30 10° W 18:10:32 49° N 18:13:01 21° ENE
Cosmos 1461 2.9 18:09:26 10° NW 18:13:30 78° SW 18:17:43 10° SSE
Unknown 4.2 18:09:56 10° W 18:13:58 48° N 18:16:17 23° ENE
COSMO-SKYMED 1 2.6 18:09:37 10° NNE 18:13:59 85° WNW 18:18:20 10° SSW
Unknown 4.0 18:10:44 10° WNW 18:14:31 47° N 18:16:22 26° ENE
Unknown 4.2 18:11:04 10° W 18:15:06 48° N 18:17:22 23° ENE
Unknown 4.2 18:11:45 10° WNW 18:15:47 48° N 18:18:00 24° ENE
Unknown 4.2 18:12:07 10° WNW 18:16:02 47° N 18:18:05 25° ENE
Cosmos 1339 Rocket 4.4 18:10:27 10° S 18:16:30 78° E 18:22:42 10° NNE
Unknown 4.2 18:13:26 10° WNW 18:17:29 48° N 18:19:38 24° ENE
Cosmos 2082 Rocket 2.1 18:12:50 10° NNW 18:18:35 73° ENE 18:24:15 10° SE
Unknown 4.2 18:15:40 10° WNW 18:19:38 47° N 18:21:37 26° ENE
CSL-04 Debris 4.3 18:14:28 10° SSE 18:19:56 81° WSW 18:25:28 10° NNW
Ariane Rocket 3.1 18:15:10 10° SE 18:20:07 54° ENE 18:25:07 10° N
Cosmos 1459 Rocket 4.3 18:14:26 10° N 18:20:22 44° ENE 18:26:20 10° SE
Unknown 4.2 18:16:35 10° WNW 18:20:37 48° N 18:22:39 26° ENE
Unknown 4.2 18:19:55 10° WNW 18:23:57 48° N 18:25:50 27° ENE
NOSS 3-2 (A) 3.7 18:19:47 10° S 18:25:15 45° ESE 18:29:49 17° NE
CZ-4 R/B 2.3 18:21:15 10° S 18:25:21 53° W 18:29:31 10° NNW
Cosmos 2084 Rocket 3.5 18:21:02 10° NW 18:25:29 68° NE 18:27:37 29° ESE
Unknown 4.2 18:21:34 10° WNW 18:25:36 48° N 18:27:25 28° ENE
ATLAS CENTAUR R/B 3.7 18:23:28 10° NNW 18:25:54 14° NNE 18:27:18 12° NE
Unknown 4.2 18:23:16 10° WNW 18:27:17 47° N 18:29:02 29° NE
Unknown 4.2 18:24:54 10° WNW 18:28:55 47° N 18:30:35 30° NE
Cosmos 1605 Rocket 4.3 18:23:02 10° NNW 18:29:12 70° W 18:35:15 10° S
Cosmos 1844 Rocket 4.5 18:26:45 10° WSW 18:31:42 30° NW 18:36:40 10° NNE
NOSS 3-3 (A) 4.5 18:24:35 10° NW 18:32:01 85° NE 18:39:06 15° SE
NOSS 3-3 (C) 4.5 18:24:41 10° NW 18:32:07 85° NE 18:39:08 15° SE
HJ-1C 3.5 18:32:27 49° E 18:32:34 49° ENE 18:35:51 10° N
Cosmos 44 4.2 18:28:54 10° S 18:32:31 27° SE 18:32:31 27° SE
Unknown 4.2 18:31:34 10° WNW 18:35:36 47° N 18:36:58 34° NE
Cosmos 1937 Rocket 4.1 18:30:52 10° N 18:35:36 35° ENE 18:36:31 33° E
Unknown 4.2 18:33:17 10° WNW 18:37:18 47° N 18:38:36 35° NE
Cosmos 990 Rocket 4.3 18:32:51 10° NNW 18:37:51 45° ENE 18:39:26 35° ESE
Okean 3 Rocket 4.0 18:34:26 10° N 18:38:44 39° ENE 18:38:58 39° E
Unknown 4.2 18:34:53 10° WNW 18:38:55 47° N 18:40:08 36° NE
Resurs 01 Rocket 3.8 18:42:28 12° NNE 18:42:28 12° NNE 18:43:07 10° NNE
Unknown 4.2 18:36:35 10° WNW 18:40:36 47° N 18:41:45 37° NE
Unknown 4.2 18:38:15 10° WNW 18:42:16 48° N 18:43:21 38° NE
Cosmos 1727 Rocket 3.9 18:36:11 10° S 18:42:21 84° E 18:48:34 10° N
In-Cosmos 22 Rocket 4.1 18:38:05 10° N 18:43:26 58° ENE 18:46:48 23° SSE
Unknown 4.2 18:41:35 10° WNW 18:45:37 48° N 18:46:33 40° NE
Starlink (trailer) 4.2 18:43:15 10° WNW 18:47:16 48° N 18:48:08 41° NE
Cosmos 2173 Rocket 3.9 18:41:18 10° N 18:47:34 67° ENE 18:53:41 10° SSE
Cosmos 1076 Rocket 3.5 18:43:50 10° N 18:48:13 84° W 18:52:33 10° S
Unknown 4.1 18:44:53 10° WNW 18:48:55 48° N 18:49:42 42° NE
NOSS 3-2 (C) 3.7 18:44:54 10° S 18:50:21 44° ESE 18:51:57 37° E
Unknown 4.1 18:46:36 10° WNW 18:50:38 48° N 18:51:21 43° NE
SJ-6B 4.4 18:52:53 22° NNE 18:52:53 22° NNE 18:54:29 10° N
Cosmos 1802 Rocket 4.0 18:46:46 10° N 18:53:10 62° ENE 18:57:43 20° SSE
ADEOS Rocket 3.8 18:46:42 10° NNE 18:53:47 38° E 19:00:22 10° SSE
ATLAS 5 CENTAUR R/B 3.9 18:50:28 10° WNW 18:54:02 21° NNW 18:57:39 11° NNE
Cosmos 1812 Rocket 3.7 18:50:53 10° SSW 18:55:19 74° W 18:59:48 10° N
Unknown 4.0 18:52:37 10° WNW 18:56:40 49° N 18:57:05 47° NNE
Unknown 4.0 18:52:45 10° WNW 18:56:47 48° N 18:57:11 46° NNE
Unknown 4.1 18:53:13 10° WNW 18:57:15 49° N 18:57:40 47° NNE
SPOT 3 Rocket 3.7 18:57:17 47° E 18:57:40 48° ENE 19:02:40 10° N
Unknown 4.0 18:56:01 10° WNW 19:00:04 49° N 19:00:21 48° NNE
Cosmos 2123 Rocket 4.4 19:01:06 40° ENE 19:01:06 40° ENE 19:06:15 10° NNE
Cosmos 2278 Rocket 2.8 18:55:05 10° SW 19:00:40 58° WNW 19:06:19 10° NNE
Abrixas rocket 3.3 18:57:55 10° WSW 18:59:58 38° WSW 18:59:58 38° WSW
Unknown 4.3 18:58:58 10° WNW 19:02:07 36° SW 19:02:09 36° SW
Unknown 4.0 18:58:18 10° WNW 19:02:21 49° N 19:02:32 49° NNE
Cosmos 2297 3.7 18:57:43 10° S 19:03:16 57° ESE 19:04:47 43° ENE
Unknown 4.0 19:00:05 10° WNW 19:04:08 50° N 19:04:14 50° NNE
Unknown 3.6 19:03:06 10° WNW 19:06:23 66° WNW 19:06:23 66° WNW
Unknown 4.1 19:03:24 10° WNW 19:07:25 50° N 19:07:25 50° N
Cosmos 2058 3.1 19:03:18 10° NNW 19:07:31 72° W 19:08:58 39° S
Unknown 4.1 19:03:33 10° WNW 19:07:33 50° N 19:07:33 50° N
FALCON 9 DEB 4.3 19:04:34 10° WNW 19:07:36 38° SW 19:07:36 38° SW
Unknown 4.1 19:04:57 10° WNW 19:08:54 50° N 19:08:54 50° N
Cosmos 1725 Rocket 4.0 19:02:53 10° N 19:09:03 55° ENE 19:10:07 49° ESE
Cosmos 1000 Rocket 4.3 19:03:15 10° S 19:09:25 75° E 19:15:41 10° NNE
Unknown 4.1 19:08:11 10° WNW 19:12:01 50° N 19:12:01 50° N
Cosmos 2151 3.7 19:08:40 10° N 19:11:41 42° NNE 19:11:41 42° NNE
Cosmos 2100 Rocket 4.0 19:07:12 10° NNW 19:13:24 77° W 19:19:31 10° S
H-2A R/B 2.2 19:14:06 57° ENE 19:14:06 57° ENE 19:19:18 10° N
Unknown 4.2 19:11:35 10° WNW 19:15:16 50° NNW 19:15:16 50° NNW
Lacrosse 5 2.9 19:11:54 10° WNW 19:16:38 41° SW 19:18:16 31° S
Unknown 4.3 19:13:18 10° WNW 19:16:54 49° NNW 19:16:54 49° NNW
Unknown 4.3 19:14:58 10° WNW 19:18:30 49° NNW 19:18:30 49° NNW
ATLAS 3B R/B 2.8 19:14:02 10° SSW 19:19:45 48° SE 19:19:45 48° SE
Unknown 4.3 19:16:38 10° WNW 19:20:06 48° NNW 19:20:06 48° NNW
ARGOS 3.2 19:23:54 61° NE 19:23:54 61° NE 19:28:51 10° N
Unknown 4.4 19:19:59 10° WNW 19:23:18 46° NNW 19:23:18 46° NNW
Cosmos 1898 Rocket 3.6 19:19:18 10° NNW 19:24:35 77° WSW 19:25:35 58° S
Unknown 4.5 19:21:42 10° WNW 19:24:57 45° NNW 19:24:57 45° NNW
MOS 1 4.5 19:22:31 24° S 19:26:00 68° WSW 19:31:40 10° NNW
CENTAUR R/B 2.7 19:23:22 10° SSW 19:28:05 51° SSE 19:28:05 51° SSE
Cosmos 2016 Rocket 3.9 19:25:47 10° N 19:32:06 86° W 19:34:31 41° S
SL-08 R/B 4.3 19:33:30 10° N 19:39:40 88° W 19:40:26 70° S
SJ 16-02 2.7 19:44:46 10° NNW 19:47:34 37° NW 19:47:34 37° NW
USA 238 DEB 4.1 19:45:37 10° WSW 19:52:15 58° NW 19:55:39 31° NNE
USA 238 4.1 19:45:43 10° WSW 19:52:22 59° NW 19:55:44 31° NNE
CZ-2C R/B 3.9 20:03:09 52° NNW 20:03:09 52° NNW 20:07:25 10° NNW
Cosmos 2082 Rocket 4.4 19:57:55 10° NW 20:02:04 21° W 20:06:10 10° SSW
ATLAS CENTAUR R/B 3.9 20:02:00 10° NNW 20:03:29 19° NNW 20:03:29 19° NNW
NOSS 3-2 (A) 4.2 20:10:16 10° WSW 20:16:04 49° NW 20:17:15 44° N
Resurs 01 Rocket 4.2 20:20:02 16° NNW 20:20:02 16° NNW 20:20:55 10° NNW
ADEOS Rocket 4.0 20:32:01 10° N 20:39:30 55° WNW 20:46:28 10° SW
ATLAS 5 CENTAUR R/B 4.4 20:37:08 10° NW 20:39:10 16° NNW 20:39:10 16° NNW
H-2A R/B 4.2 20:54:44 23° WNW 20:54:44 23° WNW 20:58:08 10° NW
ATLAS 3B R/B 4.5 21:04:46 10° WSW 21:07:05 22° WSW 21:07:05 22° WSW
